FW0979 Weather Reports


time (UTC)temp
C
wind
direction
speed
KPH
gust
KPH
rain 1hr
cm
rain 24hr
cm
rain mn
cm
humidity
%
barometer
mb
20260902060019 26 283 16.1 30.6 0.00 0.00 0.00 51 1009.4
20260902054533 26 264 17.7 33.8 0.00 0.00 0.00 51 1009.7
20260902053021 26 263 9.7 19.3 0.00 0.00 0.00 48 1009.7
20260902051515 26 259 9.7 22.5 0.00 0.00 0.00 49 1009.8
20260902050016 27 252 14.5 25.7 0.00 0.00 0.00 45 1010.1
20260902044515 28 258 9.7 25.7 0.00 0.00 0.00 42 1009.7
20260902043015 29 158 11.3 25.7 0.00 0.00 0.00 36 1009.3
20260902041515 29 142 9.7 20.9 0.00 0.00 0.00 36 1009.1
20260902040013 29 142 11.3 20.9 0.00 0.00 0.00 36 1008.9
20260902034521 29 131 9.7 19.3 0.00 0.00 0.00 35 1008.8
20260902033011 30 146 9.7 20.9 0.00 0.00 0.00 35 1008.6
20260902031514 30 129 11.3 22.5 0.00 0.00 0.00 34 1008.3
20260902030011 30 160 11.3 19.3 0.00 0.00 0.00 34 1008.1
20260902024511 30 139 11.3 22.5 0.00 0.00 0.00 34 1007.7
20260902023011 30 127 9.7 20.9 0.00 0.00 0.00 34 1007.5
20260902021508 31 127 9.7 16.1 0.00 0.00 0.00 34 1007.3
20260902020008 31 134 9.7 19.3 0.00 0.00 0.00 33 1007.1
20260902014508 31 142 8.0 17.7 0.00 0.00 0.00 33 1007.0
20260902013011 31 134 6.4 17.7 0.00 0.00 0.00 32 1006.8
20260902011510 32 120 8.0 17.7 0.00 0.00 0.00 31 1006.7
20260902010011 32 113 8.0 17.7 0.00 0.00 0.00 31 1006.5
20260902004506 33 156 9.7 20.9 0.00 0.00 0.00 30 1006.3
20260902003005 33 134 9.7 17.7 0.00 0.00 0.00 29 1006.3
20260902001505 33 139 11.3 20.9 0.00 0.00 0.00 30 1006.3
20260902000013 33 136 11.3 22.5 0.00 0.00 0.00 30 1006.4
20260901234503 33 142 9.7 20.9 0.00 0.00 0.00 30 1006.3
20260901233003 33 155 11.3 20.9 0.00 0.00 0.00 30 1006.4
20260901231505 33 140 9.7 20.9 0.00 0.00 0.00 29 1006.3
20260901230004 34 122 12.9 27.4 0.00 0.00 0.00 29 1006.2
20260901224501 34 148 12.9 25.7 0.00 0.00 0.00 29 1006.3
20260901223059 33 132 4.8 11.3 0.00 0.00 0.00 28 1006.5
20260901221559 33 137 8.0 17.7 0.00 0.00 0.00 28 1006.5
20260901220116 34 98 4.8 16.1 0.00 0.00 0.00 27 1006.4
20260901214557 35 117 9.7 20.9 0.00 0.00 0.00 26 1006.4
20260901213057 35 56 4.8 19.3 0.00 0.00 0.00 26 1006.5
20260901211554 35 163 4.8 11.3 0.00 0.00 0.00 26 1007.0
20260901210052 35 159 6.4 14.5 0.00 0.00 0.00 26 1007.4
20260901204549 34 118 4.8 17.7 0.00 0.00 0.00 27 1007.5
20260901203049 35 180 9.7 20.9 0.00 0.00 0.00 27 1007.9
20260901201546 35 179 6.4 16.1 0.00 0.00 0.00 26 1008.0
20260901200049 35 205 6.4 16.1 0.00 0.00 0.00 28 1008.1
20260901194553 35 230 9.7 20.9 0.00 0.00 0.00 27 1008.4
20260901193044 35 181 4.8 16.1 0.00 0.00 0.00 27 1008.6
20260901191536 34 225 8.0 19.3 0.00 0.00 0.00 30 1008.8
20260901190034 35 200 6.4 17.7 0.00 0.00 0.00 31 1009.0
20260901184531 34 212 8.0 22.5 0.00 0.00 0.00 31 1009.2
20260901183030 33 214 8.0 20.9 0.00 0.00 0.00 34 1009.3
20260901181534 33 214 9.7 22.5 0.00 0.00 0.00 34 1009.7
20260901180022 32 141 11.3 20.9 0.00 0.00 0.00 37 1009.9
20260901174521 32 148 12.9 22.5 0.00 0.00 0.00 39 1010.1
20260901173018 32 192 11.3 22.5 0.00 0.00 0.00 39 1010.1
20260901171519 31 153 11.3 22.5 0.00 0.00 0.00 41 1010.2
20260901170034 31 164 9.7 22.5 0.00 0.00 0.00 43 1010.3
20260901164511 31 179 9.7 19.3 0.00 0.00 0.00 45 1010.3
20260901163008 30 203 9.7 22.5 0.00 0.00 0.00 46 1010.4
20260901161504 30 178 9.7 22.5 0.00 0.00 0.00 48 1010.5
20260901160003 28 223 9.7 22.5 0.00 0.00 0.00 50 1010.4
20260901154609 28 205 12.9 25.7 0.00 0.00 0.00 51 1010.6
20260901153054 27 180 11.3 20.9 0.00 0.00 0.00 53 1010.6
20260901151556 27 205 12.9 25.7 0.00 0.00 0.00 55 1010.6
20260901144549 26 179 14.5 27.4 0.00 0.00 0.00 58 1010.6
20260901143047 25 207 12.9 29.0 0.00 0.00 0.00 60 1010.7
20260901141543 25 195 11.3 24.1 0.00 0.00 0.00 60 1010.7
20260901140041 24 192 11.3 24.1 0.00 0.00 0.00 61 1010.6
20260901134542 23 180 11.3 20.9 0.00 0.00 0.00 61 1010.6
20260901133039 23 136 9.7 16.1 0.00 0.00 0.00 62 1010.4
20260901131545 23 148 8.0 14.5 0.00 0.00 0.00 63 1010.4
20260901130036 22 158 8.0 14.5 0.00 0.00 0.00 64 1010.3
20260901124532 22 137 8.0 20.9 0.00 0.00 0.00 63 1010.0
20260901123034 23 141 9.7 20.9 0.00 0.00 0.00 62 1009.8
20260901121527 23 179 8.0 19.3 0.00 0.00 0.00 61 1009.6
20260901120025 23 161 9.7 24.1 0.00 0.00 0.00 61 1009.6
20260901114536 23 180 9.7 19.3 0.00 0.00 0.00 60 1009.4
20260901113023 23 157 12.9 20.9 0.00 0.00 0.00 60 1009.4
20260901111520 23 179 11.3 22.5 0.00 0.00 0.00 59 1009.6
20260901110019 23 160 11.3 22.5 0.00 0.00 0.00 60 1009.6
20260901104516 24 179 9.7 20.9 0.00 0.00 0.00 59 1009.6
20260901103017 24 156 8.0 17.7 0.00 0.00 0.00 59 1009.4
20260901101511 24 165 9.7 17.7 0.00 0.00 0.00 58 1009.6
20260901100109 24 210 9.7 19.3 0.00 0.00 0.00 58 1009.5
20260901094516 24 195 8.0 16.1 0.00 0.00 0.00 57 1009.6
20260901093007 25 180 11.3 19.3 0.00 0.00 0.00 56 1009.6
20260901091505 25 181 11.3 22.5 0.00 0.00 0.00 55 1009.6
20260901090006 25 199 12.9 22.5 0.00 0.00 0.00 54 1009.5
20260901084603 25 179 11.3 22.5 0.00 0.00 0.00 54 1009.6
20260901083058 25 196 11.3 22.5 0.00 0.00 0.00 52 1009.3
20260901081555 25 179 11.3 19.3 0.00 0.00 0.00 51 1009.4
20260901080056 25 203 9.7 16.1 0.00 0.00 0.00 50 1009.3
20260901074557 25 179 8.0 12.9 0.00 0.00 0.00 48 1009.3
20260901073048 25 163 6.4 16.1 0.00 0.00 0.00 47 1009.2
20260901071548 25 194 8.0 16.1 0.00 0.00 0.00 46 1009.2
20260901070044 26 196 6.4 12.9 0.00 0.00 0.00 45 1009.3
20260901064545 26 191 8.0 17.7 0.00 0.00 0.00 44 1009.1
20260901063047 26 193 8.0 16.1 0.00 0.00 0.00 42 1009.2
20260901061536 27 200 9.7 20.9 0.00 0.00 0.00 41 1009.1